Theta_e
329 326 326 330 328 324 313 311 296 300 296 291 288 289 290 296 296 295 295 297 296 300 303 306 304 305 302 304 308 311 313 305 307 297 297 318 333 338 340 341 343 344 343 344 344 344 345 346 350 350 350 350 350 350 349 349 348 347 346 347 347 347 347 346 345 344 344 344 343 341 341 341 341 340 340 340 339 339 340 342 346 345 345 345 345 345 344 344 343 341 339 340 340 341 341 341 341
325 321 319 320 321 313 306 308 298 293 290 288 290 290 294 296 295 294 295 297 299 301 301 303 304 304 311 312 313 314 314 318 319 318 327 333 338 339 341 342 344 343 343 344 344 344 344 345 348 349 350 350 349 349 349 349 348 347 346 346 347 347 346 346 345 344 343 342 342 341 341 341 341 340 339 340 339 339 340 342 343 343 343 343 343 342 342 342 342 340 339 339 339 341 340 341 342
325 320 318 317 315 311 309 307 296 289 287 284 289 291 297 296 296 297 298 299 301 302 303 303 303 304 303 304 308 308 305 323 327 328 328 335 332 335 341 343 344 344 344 345 345 344 344 344 346 350 350 350 349 349 349 348 347 347 346 346 347 347 346 346 345 343 342 342 342 342 341 340 340 340 339 339 339 339 340 339 338 338 339 340 340 341 341 341 338 338 338 339 341 340 340 341 341
323 322 317 314 309 310 302 298 295 290 287 284 287 292 294 296 296 298 300 301 301 301 303 304 301 305 304 306 309 315 313 317 326 328 327 329 330 337 340 343 343 344 344 345 345 344 343 344 347 349 350 349 349 349 349 348 347 347 346 346 346 346 346 346 345 343 343 343 343 342 341 341 340 340 339 339 339 342 345 344 343 344 344 345 345 344 343 340 338 338 339 340 340 340 340 340 340
319 322 321 312 308 305 301 299 292 288 287 286 285 293 296 297 297 298 300 300 301 301 303 303 299 302 306 306 308 305 309 321 325 328 327 330 335 336 338 342 342 342 342 344 345 344 343 344 347 349 350 349 349 349 348 348 347 346 346 346 347 346 346 345 344 343 342 342 342 341 341 341 340 340 339 339 340 345 345 345 345 344 344 345 345 344 340 339 338 338 338 340 340 339 339 339 339
322 320 321 314 306 308 301 292 291 289 293 291 290 294 296 298 298 298 299 301 301 299 301 301 299 299 307 310 313 307 315 315 325 327 328 329 334 338 339 339 341 341 343 345 345 344 343 343 346 349 349 349 349 348 348 348 347 346 346 346 347 346 346 345 343 342 342 342 342 342 341 340 340 339 339 338 340 344 345 344 344 343 343 343 344 342 339 338 338 338 339 340 339 339 338 338 339
315 311 313 311 310 307 296 290 289 290 294 293 293 295 297 297 298 299 298 299 301 301 301 302 304 304 302 311 313 317 326 322 327 328 330 332 337 339 340 339 340 342 344 344 345 344 343 343 348 350 349 349 349 348 348 348 347 347 346 346 346 346 346 345 343 341 341 341 342 342 341 341 340 339 338 338 343 344 343 344 343 342 342 341 341 340 338 338 337 337 339 339 339 338 337 337 338
318 309 310 302 299 299 294 291 291 289 294 296 296 298 298 299 298 298 297 296 298 297 301 302 301 300 301 309 306 315 329 331 330 332 332 334 336 338 338 338 340 342 343 344 344 343 346 343 347 348 349 349 349 349 348 347 347 347 346 345 345 346 345 344 342 342 340 340 340 341 341 340 340 339 338 337 338 341 341 341 341 341 340 340 339 339 337 337 338 338 338 338 337 336 336 337 337
313 310 309 300 297 295 289 290 291 293 294 297 297 302 305 300 299 298 297 298 299 299 300 301 301 297 299 307 306 315 325 330 331 332 333 335 336 336 338 338 341 342 343 343 344 344 343 341 345 347 347 348 349 348 348 348 347 346 346 346 345 345 345 344 342 341 340 340 341 340 340 340 339 339 338 337 337 337 336 339 340 339 339 339 338 338 337 337 337 337 338 337 336 335 336 336 336
308 308 299 300 299 294 290 290 288 294 293 296 298 299 299 299 298 299 297 297 298 299 302 301 300 298 302 305 310 316 320 329 331 331 332 334 335 336 337 338 343 343 342 342 343 343 343 345 342 345 346 348 348 348 348 347 347 346 346 346 345 345 345 344 342 341 340 341 341 340 340 339 339 339 338 337 337 340 339 339 339 338 337 337 336 335 335 335 335 336 336 335 335 335 335 334 335
302 307 306 299 291 290 290 289 291 294 294 296 297 299 299 297 298 297 297 298 299 299 300 300 300 301 304 305 306 312 325 329 329 328 331 333 333 334 334 340 344 343 341 341 342 342 342 343 343 341 344 345 347 348 347 347 347 346 346 345 345 345 344 343 341 339 339 339 340 340 340 339 338 338 337 337 336 336 336 337 337 336 335 334 333 333 333 333 333 334 335 334 334 334 333 333 334
301 299 301 294 293 290 290 290 291 292 295 296 296 300 299 299 298 296 296 297 299 298 299 300 298 300 303 302 306 318 324 326 328 329 331 332 332 333 334 337 343 344 343 341 340 340 340 340 341 342 340 342 343 345 346 346 347 347 346 345 345 344 344 343 341 339 339 340 340 340 339 339 338 338 337 336 336 336 335 335 334 333 333 333 332 332 332 333 332 334 333 333 333 332 332 332 333
304 302 294 293 290 289 290 291 290 292 292 294 295 300 298 299 298 297 296 297 296 297 299 301 304 300 299 302 306 315 322 324 328 331 332 331 332 332 335 338 343 343 343 341 340 339 339 339 340 341 337 334 337 340 341 343 344 346 346 345 345 344 344 342 340 338 338 338 339 339 338 338 338 337 336 336 335 335 334 334 333 332 332 332 331 332 332 332 333 332 332 332 331 331 331 331 332
304 307 299 295 293 291 290 290 290 289 290 293 297 299 300 298 298 297 296 295 296 297 301 301 302 304 303 304 307 310 313 325 329 330 331 331 332 335 335 337 340 341 341 341 340 339 339 339 339 336 336 339 339 334 333 338 342 344 344 343 343 343 343 342 340 339 338 338 337 336 336 336 336 336 336 335 334 333 333 333 333 332 332 331 331 331 331 331 332 331 331 330 330 330 330 330 331
307 307 299 297 291 289 292 289 290 288 291 295 298 298 299 301 297 296 297 296 299 301 303 304 302 298 296 301 300 308 317 327 329 329 329 331 332 333 333 335 337 338 340 341 340 339 339 338 338 337 339 339 338 339 338 337 337 340 341 340 340 341 341 340 338 337 335 334 334 332 332 330 330 331 332 332 332 331 330 329 332 331 331 331 330 330 330 330 330 330 329 328 328 328 328 329 330
307 304 296 295 289 289 291 291 291 291 293 295 298 296 296 299 299 298 300 299 300 304 302 301 302 300 304 301 301 312 325 326 327 328 330 328 328 329 331 332 335 335 336 339 339 339 339 338 337 338 339 339 339 339 339 338 333 334 338 338 338 338 338 336 334 332 329 327 326 326 325 326 325 325 325 326 327 328 326 326 330 331 330 330 330 329 329 330 329 328 327 326 326 325 325 326 327
306 301 296 289 288 290 292 292 290 289 293 295 298 297 296 297 299 301 301 300 300 300 300 301 301 305 306 316 317 325 325 326 325 327 327 324 325 323 325 327 330 335 337 338 339 339 338 337 336 337 338 339 339 339 339 339 335 333 334 332 333 334 334 332 330 325 321 320 320 320 321 324 323 323 323 322 320 322 320 323 328 330 330 329 328 328 329 328 327 326 324 324 322 321 319 320 321
302 297 292 291 289 291 295 294 292 294 295 295 296 296 296 295 298 300 300 298 298 299 300 302 308 314 321 321 323 325 325 325 325 325 323 322 321 323 322 323 326 331 333 334 337 339 339 337 336 336 337 338 339 339 340 339 335 336 337 336 335 332 329 326 325 324 324 321 320 321 321 321 321 321 321 322 320 321 321 321 323 327 328 327 328 328 327 326 325 324 323 321 321 319 316 309 311
298 293 291 289 292 295 295 296 295 295 295 296 297 295 297 296 296 298 296 296 297 297 298 300 303 311 319 320 321 323 324 323 323 323 322 321 322 322 323 322 327 328 331 334 336 338 339 338 337 337 337 338 338 338 339 338 337 337 337 337 336 331 329 327 326 323 321 320 320 320 320 320 320 320 319 320 319 318 320 320 322 325 327 327 326 326 324 323 322 321 321 319 318 314 308 307 308
298 294 291 292 296 296 296 296 298 297 297 296 296 296 297 298 297 299 296 294 294 295 295 297 299 304 315 316 318 320 321 322 322 321 321 321 321 323 322 322 325 326 331 332 334 337 338 337 336 337 337 338 338 337 337 338 338 338 336 337 337 335 332 330 327 324 321 321 321 320 320 320 319 319 320 320 318 317 317 318 319 319 321 321 320 320 321 319 318 317 316 314 310 307 306 306 307
298 293 291 294 295 295 296 296 296 296 298 297 296 296 296 296 298 297 294 294 293 295 297 299 298 301 312 316 317 317 319 320 320 320 320 320 321 323 324 325 326 327 328 329 331 334 336 337 336 335 338 338 339 339 337 337 339 338 338 338 337 336 334 333 329 325 322 322 322 322 321 320 319 318 317 316 316 315 313 313 312 311 310 309 312 307 307 307 305 304 304 305 304 305 306 305 306
296 294 295 296 295 293 297 297 295 295 296 296 295 296 296 299 298 297 295 292 289 294 297 299 301 303 310 315 315 316 317 318 319 319 320 321 321 322 324 323 323 321 326 327 328 330 331 334 335 334 336 338 339 339 337 336 338 338 338 338 338 337 337 335 331 327 323 323 325 326 321 319 317 317 317 316 314 313 311 309 308 307 306 306 307 306 305 303 303 302 303 303 304 305 305 305 305
293 294 295 294 296 295 297 297 295 294 296 295 295 298 298 297 297 297 295 294 295 299 301 301 301 304 310 316 315 315 315 316 318 318 320 320 320 321 324 325 325 324 324 327 328 329 330 332 334 335 334 335 337 339 339 337 338 338 338 338 337 337 337 336 333 330 324 324 328 326 321 318 317 316 316 315 313 311 310 308 307 306 305 305 306 307 303 302 301 301 301 302 303 304 303 303 304
293 293 294 295 295 296 296 297 294 294 295 297 297 298 297 296 296 297 297 296 297 300 301 303 302 304 311 314 314 316 316 316 317 319 320 321 321 322 324 325 326 323 321 325 326 328 327 331 334 334 332 333 334 336 337 337 338 338 338 335 337 335 336 336 336 333 328 325 330 326 322 319 317 316 316 314 312 310 309 308 307 305 305 305 308 304 302 301 300 300 300 300 301 301 301 301 302
293 294 296 296 295 297 295 294 294 295 296 296 296 297 297 295 295 296 296 298 297 300 300 303 304 306 309 313 313 314 316 315 316 317 318 317 320 322 320 324 325 324 322 323 326 327 328 330 332 333 331 331 333 334 334 336 337 337 337 337 337 331 335 335 336 336 332 329 333 328 324 320 318 318 317 315 313 310 309 308 307 305 306 308 305 302 301 300 299 299 299 299 299 299 299 299 300
297 295 295 296 296 297 295 295 295 296 298 296 297 296 296 295 297 296 297 297 298 299 299 302 304 304 306 310 311 311 314 314 315 315 318 319 318 320 320 322 324 324 324 324 324 325 326 328 331 332 331 329 331 332 331 333 335 335 336 336 337 333 335 335 335 335 336 334 333 330 325 322 319 320 318 316 313 311 310 308 307 306 307 307 303 301 301 300 298 298 298 299 299 299 299 299 299
296 295 295 296 296 296 297 296 297 296 297 296 295 294 295 296 296 291 293 298 298 298 299 298 302 303 304 306 309 309 311 313 313 316 315 316 317 319 321 320 322 324 323 323 323 323 324 325 328 330 330 327 328 329 329 331 332 333 333 336 336 335 336 335 335 335 335 335 335 332 326 323 321 322 320 318 315 314 310 308 307 308 308 304 303 301 300 299 298 298 298 299 299 298 298 298 298
297 296 294 295 296 296 296 295 297 295 296 295 296 295 295 295 296 294 296 299 298 298 298 298 297 299 301 304 306 307 309 311 312 313 314 315 317 318 320 320 322 323 322 322 323 323 323 324 325 326 328 327 326 327 326 328 329 330 331 334 334 335 335 335 335 335 332 333 333 333 331 325 323 324 322 320 319 316 310 307 308 309 305 302 301 299 298 298 297 298 299 300 299 297 297 297 297
296 296 292 295 295 296 296 294 295 296 296 297 297 294 292 294 292 298 296 298 297 298 298 298 298 298 297 299 302 304 306 307 309 312 314 316 318 319 320 322 322 322 323 324 323 322 323 324 324 325 326 326 326 326 326 326 326 328 329 331 332 334 334 334 334 334 334 333 333 333 332 329 325 326 323 322 320 316 311 310 311 308 304 301 299 298 297 297 298 298 299 298 297 296 296 296 296
297 295 292 292 292 289 295 296 295 295 296 296 296 285 285 291 296 298 296 299 297 297 296 296 297 298 298 298 297 299 301 302 306 311 313 314 316 317 319 321 321 322 322 322 322 322 323 324 324 325 325 325 325 326 324 324 324 324 327 329 330 332 332 333 333 333 331 331 332 332 332 331 328 328 325 323 320 315 313 312 310 305 302 299 298 297 297 297 298 297 297 297 297 296 295 295 294
291 294 291 287 286 286 292 296 294 294 296 296 294 286 286 289 293 297 296 298 298 297 296 295 296 298 298 298 298 298 299 301 306 310 312 314 315 316 318 320 321 321 320 322 322 322 322 323 324 325 323 323 323 324 322 322 322 322 322 324 327 331 331 331 331 331 331 331 331 332 332 331 330 329 327 322 318 315 314 311 308 305 301 299 298 297 297 297 297 297 297 296 295 295 295 294 293
292 288 284 286 286 287 294 296 294 292 296 296 293 287 288 292 293 295 299 296 297 295 295 295 296 297 298 298 298 298 300 301 302 307 310 313 315 315 316 318 321 321 321 322 322 321 322 323 322 323 322 321 321 322 320 320 320 321 321 319 324 329 329 328 328 329 330 330 331 332 332 331 331 330 326 322 318 316 313 310 307 304 301 299 299 298 298 296 297 297 296 295 294 293 293 292 292
289 285 284 287 285 289 292 296 295 294 295 296 293 286 288 291 294 296 296 298 296 295 295 295 296 297 297 298 299 299 300 300 302 303 308 311 314 315 316 317 320 322 321 321 321 321 320 321 321 322 321 319 319 319 318 317 317 318 319 320 320 325 327 326 326 326 326 328 328 329 332 331 331 330 325 322 319 316 312 309 306 303 301 300 298 298 297 297 296 296 295 295 295 293 292 292 291
286 287 285 287 286 287 287 290 294 295 294 292 293 290 289 291 292 293 296 297 296 295 296 296 297 297 297 297 299 300 300 301 302 303 305 310 312 314 316 315 318 321 320 320 321 322 320 319 320 320 320 318 318 318 317 316 315 315 314 314 313 320 323 323 323 323 323 324 324 325 327 330 330 329 324 322 319 316 312 308 305 302 301 299 298 297 296 297 296 295 294 295 294 293 292 291 290
283 287 286 286 287 289 288 288 291 295 293 292 290 290 291 294 295 294 295 295 296 296 296 296 296 297 297 296 298 300 301 301 303 304 305 308 311 312 313 313 314 318 320 319 319 320 318 317 316 315 316 315 316 315 314 314 312 310 310 310 311 312 318 317 320 320 320 320 321 322 323 326 328 326 323 321 318 314 310 307 304 302 301 300 298 296 296 295 295 295 294 294 294 293 292 291 290
288 288 285 284 288 286 287 289 294 294 291 290 289 289 291 293 294 296 296 295 296 297 296 295 295 296 297 297 297 298 300 301 303 304 305 306 309 311 311 312 313 316 318 318 317 317 315 315 314 313 314 314 313 313 312 311 310 311 311 309 309 309 309 313 315 317 316 318 317 319 322 323 325 324 322 320 317 313 309 306 304 303 301 300 298 296 296 294 294 294 294 293 292 292 292 291 290
289 289 287 287 285 289 292 292 294 293 290 288 290 290 289 291 292 294 295 294 293 294 295 296 296 296 297 297 297 298 298 300 302 303 304 305 307 309 311 311 312 313 314 316 316 316 314 315 313 313 313 312 313 312 311 311 311 307 306 310 312 309 309 310 313 313 314 315 315 317 320 321 322 323 321 320 316 311 309 307 304 303 301 300 298 296 295 295 295 295 294 293 292 290 290 290 289
289 287 287 286 287 287 291 292 293 292 291 285 286 287 288 290 292 293 294 292 294 294 293 294 296 296 297 297 297 297 298 299 301 301 302 304 304 307 308 310 309 311 312 313 315 315 314 313 313 313 311 312 313 313 312 311 311 311 311 310 307 305 306 308 308 309 311 311 312 315 316 319 321 322 319 319 316 313 309 307 305 303 301 300 298 297 296 296 295 294 294 292 293 291 289 289 289
288 286 286 286 287 288 292 292 292 293 290 287 286 288 290 291 292 293 292 294 296 296 296 297 296 295 296 296 296 298 297 298 299 301 302 303 304 306 308 309 310 312 311 311 311 311 310 311 312 311 311 312 311 311 310 310 306 306 306 304 308 303 300 301 303 303 306 309 310 312 315 317 320 320 320 317 315 313 310 308 306 303 301 300 298 297 296 295 295 293 293 292 290 291 290 290 288
286 286 283 284 285 289 285 288 290 292 290 287 287 288 291 293 293 293 295 295 296 296 295 295 295 296 296 296 297 299 298 299 298 301 303 302 304 306 306 307 309 309 308 308 309 311 310 309 310 310 310 310 309 309 308 305 306 304 304 305 306 304 301 298 300 302 304 306 307 309 313 315 318 319 319 317 315 313 310 308 306 303 301 300 298 297 296 295 294 293 293 292 291 288 288 288 289
287 287 284 285 290 289 287 289 290 290 290 290 289 287 287 287 289 289 292 294 295 297 296 295 295 296 297 297 296 297 299 298 299 300 301 302 303 305 306 307 306 308 308 309 309 311 312 310 310 310 310 309 307 306 307 306 304 303 301 302 301 301 301 300 300 300 304 306 307 308 311 312 314 316 318 316 313 312 310 309 306 304 302 301 299 298 296 295 294 294 293 292 291 289 287 287 288
285 288 290 288 288 290 291 291 287 282 280 286 288 280 278 282 286 289 291 291 292 291 293 295 296 296 295 296 298 297 298 297 299 301 303 304 305 304 302 303 305 306 307 308 309 310 310 309 309 309 308 307 306 305 307 306 305 304 303 303 303 304 304 303 304 304 302 304 306 308 309 310 311 314 316 316 314 311 310 308 306 304 302 300 300 298 297 296 294 294 293 292 291 290 288 287 286
284 286 292 292 290 289 288 287 284 279 279 288 289 281 279 283 288 290 290 290 291 291 290 295 296 296 294 296 297 298 299 299 298 299 301 302 303 302 302 303 304 305 306 306 307 308 308 308 308 308 307 306 306 306 306 305 304 304 304 305 305 306 306 306 306 305 304 304 305 305 306 306 308 312 313 315 314 312 310 308 306 304 302 301 300 299 297 296 295 294 294 293 292 291 289 287 286
283 289 292 291 289 289 289 286 284 280 282 286 288 284 278 282 288 289 290 289 290 289 291 293 296 297 296 295 297 297 298 298 300 300 301 303 303 303 303 303 303 305 305 305 306 307 307 307 306 306 306 306 306 306 305 306 305 303 303 303 303 304 305 305 306 306 305 304 304 304 304 305 306 309 311 312 312 311 310 308 307 305 304 303 300 298 297 296 295 295 294 293 292 292 290 288 288
286 293 291 290 291 289 288 285 284 284 282 281 279 287 282 278 283 287 288 287 286 289 291 292 294 296 294 294 297 296 297 299 300 300 299 301 302 302 302 302 303 303 304 305 306 306 306 306 306 305 306 305 305 306 304 304 304 303 303 303 302 302 304 304 305 304 303 303 303 302 303 303 303 305 309 310 311 310 308 308 307 305 304 302 299 299 298 297 295 294 293 293 293 292 291 291 290
292 292 292 291 289 288 286 281 285 280 278 277 282 285 278 281 283 285 286 285 286 288 291 293 293 293 292 294 297 298 298 298 299 298 297 299 301 301 302 302 302 303 304 305 304 305 305 305 306 304 304 305 305 305 304 303 302 302 303 302 302 301 303 303 304 303 302 301 302 300 301 301 302 303 304 308 309 310 308 308 307 305 303 301 299 300 298 296 295 294 294 294 294 292 293 293 292
292 290 289 287 285 283 281 280 278 278 275 276 284 286 282 278 281 283 286 286 288 290 289 292 291 295 296 296 298 299 298 297 297 297 297 297 298 300 300 302 302 301 302 304 304 304 304 305 305 304 303 304 304 304 303 302 302 302 303 302 302 302 303 303 302 302 301 300 300 299 299 300 300 301 302 304 307 308 308 307 306 305 303 300 299 299 297 296 295 295 295 294 294 293 292 292 291
292 288 282 280 280 278 278 277 276 276 272 276 282 287 284 276 276 285 287 288 288 291 291 293 290 295 298 298 298 297 297 297 296 296 296 297 297 298 299 301 301 302 302 303 303 304 303 304 304 303 301 302 302 302 302 302 302 302 302 302 303 303 303 304 303 302 301 300 300 298 298 299 298 299 300 302 304 306 307 306 305 304 302 300 300 299 298 297 296 296 295 295 295 294 293 292 292
289 284 283 278 275 275 273 273 275 273 274 278 280 283 282 282 284 289 289 290 290 289 292 290 289 293 297 297 298 296 295 296 295 295 296 296 298 298 299 300 299 301 303 303 303 303 303 302 303 303 301 300 301 301 301 301 301 302 302 302 303 304 305 305 304 303 301 301 300 298 297 297 297 297 298 300 302 305 306 305 304 303 302 301 301 300 299 297 297 296 296 295 295 294 294 293 293
286 285 280 276 273 272 269 268 271 272 276 280 284 285 282 283 286 288 293 295 294 294 289 290 291 295 298 299 296 295 295 297 297 296 296 296 297 298 298 299 300 301 302 303 302 302 302 302 302 302 301 300 300 300 300 300 301 301 302 302 303 304 305 305 305 304 301 301 300 299 297 298 297 298 299 300 302 304 305 306 305 304 303 302 301 300 299 298 297 297 296 295 295 295 294 293 293
288 285 285 281 275 272 268 270 273 274 273 279 281 280 279 277 284 289 290 291 290 290 292 291 293 293 293 295 295 295 294 294 294 295 296 297 297 297 298 299 300 301 302 302 302 302 302 302 301 301 301 300 299 300 300 300 300 301 301 302 303 305 306 304 304 304 301 301 300 299 298 298 298 299 300 301 301 302 304 306 305 305 303 302 301 300 299 298 297 297 296 295 295 295 294 294 292
285 286 285 279 281 276 273 271 272 272 274 275 277 280 279 283 287 290 290 292 292 289 291 293 294 292 294 298 298 298 295 296 295 296 296 296 296 297 298 298 299 300 301 301 302 302 302 302 301 302 302 301 300 299 299 300 300 300 301 302 304 305 305 304 302 302 302 302 300 299 298 298 299 299 300 300 300 301 303 304 304 304 304 302 301 300 299 297 297 296 295 295 295 295 293 292 290
283 287 283 283 284 284 278 275 279 274 273 276 275 280 283 284 287 291 295 293 292 290 290 291 293 294 292 293 296 295 295 296 296 297 298 298 297 297 298 298 298 299 300 302 302 302 302 302 301 301 301 300 300 299 299 299 299 299 300 301 303 304 303 303 302 301 301 301 300 299 299 298 298 298 298 299 299 300 301 302 303 303 303 302 301 300 299 298 297 296 295 294 293 292 292 290 289
286 282 284 288 288 286 280 274 272 273 272 275 276 278 280 277 281 284 285 288 289 288 290 292 293 291 292 297 297 294 296 297 297 298 299 300 300 299 298 298 299 300 301 302 302 302 302 302 301 301 300 300 300 299 298 298 298 299 299 300 302 303 302 302 302 301 300 299 299 298 298 297 297 297 297 298 299 299 300 299 301 300 300 300 300 299 298 298 297 296 295 294 293 291 290 289 288
285 282 288 287 280 280 280 275 273 270 268 271 274 277 280 281 285 286 284 287 288 288 289 290 291 293 294 295 295 295 293 293 295 297 298 299 299 299 299 299 299 299 301 302 302 302 301 301 301 301 301 301 301 300 298 298 298 299 299 299 300 303 302 300 300 300 299 299 298 298 298 297 297 296 296 296 297 297 297 296 297 296 296 297 297 296 295 295 295 294 292 291 289 290 289 287 286
290 290 290 287 281 276 278 280 274 275 270 268 274 276 280 285 284 286 288 289 290 291 289 290 292 294 294 294 296 296 295 295 297 297 298 299 299 299 299 299 298 299 300 300 301 301 301 301 300 300 300 299 299 299 297 297 297 298 298 298 299 301 302 301 300 299 298 298 297 297 297 296 296 296 296 295 295 295 295 294 293 293 294 294 293 293 293 293 292 292 291 290 289 289 288 287 285
285 285 284 286 285 285 280 282 278 276 268 268 269 274 279 284 287 287 288 289 290 291 292 292 293 294 293 294 295 296 295 295 298 299 299 298 298 297 297 297 298 297 298 299 300 301 301 300 300 299 299 299 299 299 297 297 296 297 296 297 298 299 300 300 299 299 299 298 298 296 296 296 294 294 295 294 294 294 295 294 293 293 293 293 293 292 292 292 292 291 290 290 289 289 288 286 285
290 289 286 288 284 280 276 276 281 275 277 272 269 276 283 287 290 291 290 291 291 290 291 293 293 293 293 294 294 295 295 296 298 299 298 297 296 296 295 294 294 296 298 298 300 300 299 299 300 299 299 299 299 298 297 296 296 296 296 296 297 298 300 300 299 298 298 297 296 296 295 293 292 292 293 294 294 294 295 294 293 293 293 292 293 292 291 292 292 290 289 289 289 288 287 286 285
Wind_Speed
7 6 5 4 1 0 2 1 1 2 2 0 3 2 1 0 3 4 3 2 4 1 0 2 3 4 3 5 10 6 3 2 1 3 3 2 3 9 9 11 10 10 9 7 5 5 6 7 10 12 12 12 12 13 13 13 12 12 13 14 14 14 14 14 14 15 16 16 16 16 16 16 16 17 17 16 16 17 16 17 19 18 18 19 21 21 21 21 20 20 19 20 20 19 17 16 16
4 5 5 2 2 2 1 1 1 0 4 4 2 2 3 1 6 3 3 4 1 1 0 3 4 8 12 13 9 6 5 4 1 3 2 2 8 9 11 12 12 12 8 7 6 6 5 6 10 13 12 12 13 13 13 13 12 12 13 13 14 14 14 15 15 15 15 15 15 15 15 16 16 16 17 16 17 17 16 17 15 16 18 18 20 21 21 21 20 19 20 21 20 17 17 17 18
3 6 6 3 2 2 0 1 1 2 3 3 1 2 1 8 5 2 4 5 4 3 2 3 3 3 3 2 5 3 1 2 7 4 4 6 12 8 11 10 10 11 11 7 6 6 6 6 9 12 13 13 13 13 13 13 13 13 13 13 13 14 14 14 15 15 15 15 15 15 16 16 16 16 17 16 16 16 16 14 14 14 15 18 19 20 20 20 20 18 20 21 18 17 18 18 18
2 0 0 2 1 2 1 1 1 4 4 5 3 1 3 7 5 6 4 4 4 4 1 1 3 1 4 9 5 6 5 2 1 4 6 5 5 10 10 11 11 10 9 7 7 6 6 8 11 12 13 13 14 14 13 13 13 13 13 13 13 13 14 14 15 14 15 15 15 15 15 16 17 16 16 17 17 17 16 14 14 18 18 20 22 22 21 20 19 20 20 19 17 17 18 18 18
3 1 3 2 3 1 1 1 2 4 3 4 4 0 5 6 7 5 2 1 0 2 1 2 2 3 3 5 1 2 1 5 3 1 3 3 5 6 9 11 10 9 9 8 8 7 7 11 12 12 13 14 14 13 13 13 13 13 13 13 14 14 14 15 15 14 15 15 16 16 16 15 16 16 15 16 16 17 17 19 19 18 18 20 23 22 20 19 19 19 20 18 18 18 18 18 18
1 2 0 2 1 2 2 2 3 6 1 3 4 4 4 6 8 5 3 3 2 4 1 2 3 1 3 2 0 4 2 3 4 3 3 6 8 7 10 8 10 9 9 8 8 6 7 11 12 13 14 14 14 13 13 14 13 13 13 13 13 14 14 14 14 14 15 15 15 16 16 15 15 15 15 15 16 17 18 18 19 18 17 19 22 21 19 19 19 19 19 18 18 18 18 19 19
2 4 1 2 2 1 2 3 3 4 5 3 5 5 7 5 6 8 4 3 3 3 2 1 4 5 5 0 3 2 2 2 4 3 3 5 8 7 7 9 10 10 10 8 7 7 8 11 13 13 13 13 14 13 13 13 13 13 13 13 13 13 14 14 14 14 14 15 15 15 15 15 14 14 13 15 17 17 18 19 19 18 20 20 21 20 19 19 18 19 18 18 18 18 19 19 19
0 1 1 1 1 1 2 1 2 1 3 4 5 9 6 7 6 5 4 3 2 2 1 1 2 4 1 3 4 3 4 3 5 5 7 6 7 7 6 7 11 9 9 8 7 7 10 11 12 13 12 13 12 13 13 13 13 13 13 13 13 14 14 14 14 14 14 14 15 15 15 14 14 14 13 13 14 17 17 17 17 18 18 19 19 19 19 18 18 19 17 18 18 17 17 18 18
1 1 1 3 1 2 4 2 3 0 3 4 4 8 9 9 6 6 3 2 1 1 1 1 1 5 2 4 3 0 2 2 5 8 8 8 8 6 5 5 11 9 9 8 7 7 6 11 12 12 12 12 13 13 13 13 13 13 13 13 13 14 14 14 14 13 14 14 14 15 15 14 14 14 14 14 14 13 14 15 16 17 18 18 19 19 18 18 17 18 17 17 17 17 17 18 19
1 2 2 1 2 2 0 1 5 1 4 3 8 7 7 6 5 6 6 4 4 3 0 2 2 5 3 6 2 0 3 3 6 6 4 7 6 5 5 5 12 11 10 9 8 7 6 11 12 11 11 12 12 13 13 12 13 13 13 14 14 14 14 14 14 14 14 14 14 14 14 14 14 14 14 14 15 16 16 17 17 17 17 17 18 17 17 17 17 17 17 17 16 17 17 18 18
1 1 1 1 3 2 3 2 6 2 3 1 3 3 7 5 7 4 5 5 4 4 1 1 5 5 4 1 1 3 5 5 8 8 4 5 4 4 3 7 12 12 10 10 8 7 6 7 12 11 11 11 11 12 11 11 12 12 12 14 14 14 14 14 14 14 14 14 14 14 14 14 14 14 14 14 14 14 14 14 15 15 16 17 17 17 17 17 17 17 16 16 16 16 16 17 17
1 1 1 1 1 4 4 8 4 2 2 2 0 1 0 4 4 4 5 7 2 4 3 3 1 4 5 2 1 3 5 5 5 5 5 4 3 3 3 5 10 11 12 10 9 7 7 7 6 9 11 11 10 11 11 11 11 11 12 14 14 14 14 14 14 14 14 14 14 14 14 14 14 14 14 14 14 14 13 14 15 16 16 16 17 17 17 17 17 16 17 16 16 16 16 17 17
1 0 2 2 2 3 3 8 5 5 3 2 5 1 2 4 2 7 5 7 5 5 0 4 1 4 1 0 1 3 6 5 5 6 6 4 4 1 2 4 9 11 11 10 10 8 8 7 6 6 7 10 10 11 10 10 11 11 12 13 13 13 14 14 14 15 14 14 14 14 14 13 13 14 14 14 15 14 14 13 14 15 16 16 16 17 17 17 16 16 16 16 15 16 16 18 19
1 0 2 1 1 2 6 3 3 5 2 3 1 3 2 3 1 2 8 5 1 5 2 3 2 6 3 3 1 5 5 5 6 7 5 5 2 5 5 4 8 10 11 10 9 9 7 6 7 6 6 6 6 7 9 10 11 12 12 12 12 12 13 14 13 13 14 13 13 12 12 11 12 12 13 15 15 14 13 13 14 15 15 15 16 16 16 17 15 16 16 15 15 16 16 18 19
0 0 1 1 2 2 0 5 7 4 2 3 3 5 2 1 3 5 6 6 0 1 0 0 3 3 4 6 3 8 6 8 9 6 5 5 5 5 5 5 6 7 8 9 9 9 8 7 7 7 6 6 6 5 3 7 11 12 13 12 12 12 12 13 13 13 13 12 12 12 11 11 11 12 12 13 12 11 11 12 14 14 15 15 16 16 16 16 15 16 16 16 16 16 17 17 19
1 1 1 1 3 2 2 4 2 7 1 3 4 5 4 1 2 3 0 2 2 1 0 0 2 1 2 6 5 10 11 8 7 6 7 6 5 4 4 4 6 5 5 7 8 7 7 7 6 6 6 6 6 5 5 5 8 12 13 13 13 13 12 12 13 14 13 13 12 12 13 11 10 10 12 10 13 12 11 9 12 13 15 15 16 16 16 15 16 16 17 17 16 17 17 17 17
1 3 1 2 2 1 1 2 5 3 1 4 1 5 3 2 1 1 0 1 6 1 3 1 0 3 2 1 5 14 10 8 7 8 7 5 5 4 3 3 5 5 4 6 7 7 7 8 7 6 6 7 7 7 6 5 7 11 11 13 13 13 13 13 13 13 13 12 12 12 11 8 7 7 7 7 10 8 11 12 11 13 15 15 16 16 16 15 16 17 17 16 15 14 12 14 17
2 1 3 1 2 2 1 1 2 4 7 5 5 4 6 3 0 0 2 4 2 2 5 1 8 7 4 4 7 11 10 10 8 10 7 7 5 5 4 3 4 6 6 5 6 7 8 7 8 8 6 7 7 6 5 5 5 7 8 8 8 10 11 11 10 8 8 7 11 9 6 6 6 6 6 7 7 8 10 12 12 12 15 15 15 17 16 16 16 16 16 15 14 13 12 8 9
1 1 3 1 1 1 2 1 4 5 4 7 6 4 7 6 6 2 2 1 2 2 1 4 6 4 6 7 7 10 10 9 9 9 11 10 8 9 7 5 5 5 6 6 5 7 7 7 7 8 7 7 8 7 6 6 7 6 7 7 7 9 9 9 7 8 6 7 6 6 6 6 6 6 6 6 7 10 10 12 12 12 14 13 13 15 15 15 15 15 15 14 13 12 8 7 7
1 2 1 1 2 1 4 3 1 1 9 6 5 4 2 3 4 1 2 5 3 5 5 1 4 4 6 6 5 8 9 9 9 9 10 9 8 9 8 8 7 6 7 7 7 5 7 6 7 7 8 8 8 6 6 6 6 6 6 6 6 7 7 7 7 7 7 7 7 6 6 6 6 6 9 12 10 8 8 11 12 12 11 11 12 8 11 12 15 15 14 12 9 6 6 7 7
1 3 2 2 2 1 4 3 3 2 9 7 5 2 5 3 4 4 3 4 4 5 6 10 10 10 11 10 9 7 9 10 9 8 8 8 7 7 9 10 10 9 7 5 6 7 6 7 7 6 7 8 8 7 7 6 7 6 6 6 7 7 7 7 7 7 7 7 7 6 7 6 6 7 6 6 6 7 6 6 6 6 6 5 8 6 6 7 7 7 7 8 6 6 7 6 7
3 1 2 1 1 3 2 1 4 2 4 7 5 7 4 1 2 2 5 4 5 7 6 8 10 12 14 12 10 6 9 11 11 10 11 13 13 11 8 5 2 3 5 7 9 7 8 7 7 6 7 8 9 8 8 7 8 7 7 7 7 7 7 7 7 7 7 7 7 7 8 7 7 7 6 6 6 7 7 5 6 6 6 6 4 6 7 7 6 6 7 7 6 6 7 6 6
2 1 1 3 0 4 1 1 6 3 4 5 3 1 3 3 1 3 5 6 2 3 5 7 8 13 16 12 12 10 9 11 12 13 12 12 10 9 10 9 9 8 8 9 8 7 7 6 7 7 7 7 9 8 7 7 7 7 7 7 8 7 7 7 7 7 8 8 7 8 8 7 7 7 7 6 6 6 7 6 6 6 7 6 4 6 7 6 6 6 6 6 6 7 7 7 7
5 2 1 3 4 3 1 1 4 5 8 2 1 1 1 1 2 0 2 4 6 5 3 5 5 8 12 13 13 16 16 15 16 14 13 15 15 14 12 12 10 5 6 8 8 8 8 9 9 9 7 7 7 8 8 8 7 8 8 8 8 8 8 7 8 8 8 8 6 8 8 8 8 7 7 7 6 6 7 7 6 6 6 5 5 7 7 6 7 6 7 6 7 6 7 7 8
2 1 0 1 3 0 1 1 2 4 3 1 5 3 1 4 2 0 4 8 5 4 3 7 9 12 10 11 12 10 10 9 10 9 6 5 7 7 6 8 8 8 8 9 9 9 10 9 10 10 8 8 7 8 7 7 8 7 8 8 8 8 8 8 8 8 8 8 7 9 9 8 8 8 7 7 7 7 7 7 7 6 5 5 6 6 7 7 7 6 6 7 6 7 7 7 7
0 3 3 1 1 1 1 2 2 2 1 3 2 0 1 3 1 3 8 6 7 5 5 8 9 10 11 12 13 11 11 13 12 9 13 9 6 8 8 9 10 11 12 10 9 9 9 9 11 12 10 8 8 7 7 7 8 8 8 8 8 8 7 8 7 8 8 8 7 8 9 10 10 9 8 8 9 8 7 8 8 6 5 5 7 7 6 7 7 6 6 6 7 7 7 6 7
1 5 4 6 2 2 0 2 0 1 1 1 1 0 1 2 3 6 3 9 4 6 6 5 10 11 10 9 10 11 12 13 14 12 6 5 7 10 11 8 11 13 9 10 10 9 9 10 11 10 9 7 6 8 7 7 7 8 8 7 7 8 8 7 7 8 7 8 8 9 9 9 9 9 9 9 8 8 8 8 8 6 6 5 7 7 6 7 6 7 7 7 7 7 7 6 7
6 6 4 4 1 0 1 3 1 1 1 2 3 1 0 2 1 8 6 2 6 8 6 6 6 8 9 9 10 9 10 11 9 8 13 11 11 11 11 11 12 11 11 11 10 8 9 11 10 10 9 9 8 7 7 7 8 7 7 8 8 8 8 8 8 7 7 7 6 8 8 9 9 9 10 10 9 8 8 9 8 7 6 6 7 7 7 6 7 7 8 8 7 7 7 7 7
6 7 3 1 2 1 1 3 2 1 0 0 0 2 2 1 5 12 6 1 5 7 7 7 6 7 8 8 9 8 11 9 8 9 12 13 12 11 14 13 12 12 9 10 10 10 12 10 10 9 8 8 8 8 8 6 6 7 7 8 8 9 8 8 7 7 8 7 8 7 7 8 9 9 10 10 9 9 9 9 8 7 7 8 8 9 10 8 8 8 8 8 8 7 8 8 7
3 2 5 2 1 2 5 0 2 2 1 1 1 2 7 7 13 10 3 2 3 5 6 6 6 6 6 6 7 8 7 6 9 12 11 11 11 11 12 11 10 11 9 7 9 12 10 7 7 7 8 9 9 7 7 7 7 6 7 7 8 9 8 8 9 8 8 8 8 9 9 8 9 8 10 9 9 9 9 8 9 8 7 8 9 10 10 9 8 9 8 8 7 8 8 7 8
3 1 4 3 3 2 3 3 2 3 1 1 2 2 7 6 8 6 6 6 7 6 6 5 5 6 5 6 6 8 9 9 13 13 11 11 11 10 12 9 9 8 7 8 13 12 11 10 8 8 9 9 9 8 8 8 7 7 7 7 7 8 8 8 8 8 8 8 8 9 9 9 8 8 10 10 10 9 9 8 8 8 8 9 9 8 10 8 9 10 8 9 8 7 7 7 8
1 4 2 1 3 3 1 1 6 4 1 1 3 1 9 8 9 4 0 4 5 6 5 5 5 5 6 6 7 7 9 9 8 9 11 12 11 10 11 11 10 9 12 12 10 9 11 10 10 10 9 10 10 11 8 8 8 7 7 6 7 7 7 8 8 8 8 7 8 8 10 10 10 9 10 10 9 9 9 9 8 8 9 8 8 8 9 10 9 9 7 9 11 8 9 7 7
2 3 1 1 2 2 1 1 2 6 2 1 3 5 5 4 3 2 3 2 4 5 6 6 7 7 7 6 7 7 7 6 6 8 10 11 10 10 11 11 11 13 11 10 11 10 10 11 12 12 12 11 10 9 8 6 7 7 7 6 6 7 7 7 7 7 7 7 6 7 9 10 11 10 11 11 10 10 9 8 8 10 9 8 9 9 8 8 11 9 8 6 9 10 10 9 8
2 1 2 3 4 2 1 3 1 1 4 2 1 2 7 5 8 5 3 2 2 4 7 7 7 7 8 7 8 9 8 9 11 11 11 11 11 12 11 11 11 10 10 11 11 13 13 11 11 11 10 9 9 9 8 7 6 5 5 4 4 7 7 6 6 7 8 7 7 6 6 8 10 10 11 11 10 10 10 10 9 10 10 9 9 8 8 8 8 10 10 7 8 9 10 10 9
3 2 1 4 0 7 5 4 2 5 1 2 0 4 10 13 11 6 7 4 5 8 9 9 9 8 8 6 8 9 9 10 13 11 12 12 10 9 9 9 10 10 9 10 9 9 8 9 8 9 9 8 8 8 6 5 4 3 2 3 1 2 6 6 6 7 7 7 7 6 5 5 8 9 10 11 11 10 9 9 10 10 10 10 10 9 8 9 8 9 11 10 7 7 10 9 10
5 7 5 3 2 2 1 2 1 3 1 4 4 6 8 11 11 12 7 6 8 10 8 7 8 8 7 8 8 8 9 12 11 8 10 10 10 10 9 8 8 9 9 9 9 8 9 8 7 7 8 8 6 6 6 6 6 6 6 1 2 2 2 6 4 6 6 7 6 7 6 5 5 9 10 10 10 11 10 10 11 10 10 11 12 12 11 10 12 13 12 13 12 9 8 10 10
4 4 3 2 3 1 1 1 0 0 1 5 8 7 7 9 10 11 11 6 5 7 9 10 9 9 9 8 9 10 9 13 8 9 9 10 10 9 8 7 7 6 6 9 10 10 11 12 10 11 9 8 9 8 8 8 8 5 3 7 7 5 5 4 6 5 6 6 5 6 6 5 4 6 10 11 11 12 12 11 11 11 11 11 12 14 15 13 11 11 11 9 14 13 9 9 9
4 4 4 2 1 2 1 1 1 2 1 3 2 4 9 11 10 11 9 7 11 10 10 10 12 11 10 10 11 11 10 3 2 4 6 5 5 6 6 7 7 9 8 9 12 13 10 9 12 11 8 9 10 10 9 8 8 8 8 8 5 5 5 6 6 5 6 5 5 6 5 5 5 5 7 10 11 12 11 12 11 12 12 10 9 8 11 11 12 12 12 10 7 13 10 11 11
3 3 2 1 1 1 1 1 1 1 2 8 2 5 12 11 10 10 9 12 12 9 10 10 10 10 10 10 9 9 6 8 5 6 4 6 7 7 7 7 8 10 9 8 6 5 6 8 9 8 9 9 8 8 8 8 4 3 4 3 6 3 1 1 3 3 4 5 5 5 6 4 5 6 7 9 11 10 12 13 12 10 11 11 11 10 10 13 13 14 15 14 11 6 7 8 12
5 3 2 3 2 1 2 2 1 1 2 3 1 6 14 12 7 12 14 11 11 8 4 7 8 11 12 9 10 10 11 10 8 7 7 6 7 8 6 7 9 6 6 6 7 9 7 7 7 8 8 7 7 6 6 4 4 4 3 4 3 3 3 2 3 3 3 4 5 3 4 5 5 6 8 8 9 11 11 13 12 11 10 10 11 13 12 12 12 12 12 13 16 13 9 10 9
2 3 3 0 0 1 3 1 1 1 1 2 5 5 9 5 4 5 7 6 9 13 7 8 10 9 9 6 6 8 10 9 9 6 3 5 7 9 13 10 7 8 8 9 9 10 9 11 10 10 8 8 6 6 7 6 6 5 4 4 3 4 3 3 3 3 4 4 3 4 6 5 5 5 7 9 8 10 10 10 12 12 11 11 11 13 14 15 14 14 15 14 15 16 14 10 9
1 1 3 2 5 5 2 2 3 7 2 2 2 7 5 5 4 5 8 4 2 3 3 10 12 9 6 9 11 7 5 5 8 9 10 11 11 7 5 5 7 7 8 8 8 8 7 8 8 8 6 6 7 7 8 8 8 8 7 7 7 6 7 7 10 10 7 7 7 3 4 6 6 6 6 9 9 9 10 10 11 13 13 12 13 12 11 11 12 13 15 14 13 11 15 13 10
1 2 1 2 6 6 4 2 3 2 0 1 2 1 10 5 10 8 8 8 10 8 5 9 9 8 6 9 7 7 8 6 4 3 5 6 6 6 6 7 7 8 7 5 6 7 7 7 7 7 7 6 7 7 9 9 8 8 11 10 9 10 10 8 4 3 6 4 4 6 6 5 5 7 7 8 10 11 11 11 12 13 14 13 12 12 13 15 15 14 12 12 12 11 11 14 14
1 1 1 3 4 4 2 5 3 3 2 4 1 4 4 10 12 5 11 8 9 8 11 13 13 12 9 5 6 8 7 6 7 6 7 9 9 11 12 9 8 10 7 6 7 6 8 7 7 8 7 8 8 9 10 10 10 9 8 8 8 8 8 7 7 5 4 5 6 6 5 6 6 5 7 8 9 9 10 10 11 12 12 12 12 13 14 13 11 10 13 12 10 10 12 12 12
2 0 5 4 7 4 4 5 2 0 2 7 4 0 2 6 10 5 1 5 6 11 13 12 14 14 6 4 8 7 5 6 6 6 6 8 9 8 6 7 7 5 6 8 7 7 6 7 8 7 9 8 8 10 10 9 8 9 9 8 7 5 5 4 5 5 5 6 7 5 6 6 6 6 6 7 8 9 10 11 11 11 11 11 10 10 10 11 14 15 13 12 12 11 10 7 9
1 1 5 5 6 5 3 2 2 2 1 7 3 3 3 11 5 6 1 1 6 9 11 13 12 8 7 5 3 1 2 2 2 3 5 5 6 6 6 5 5 7 6 6 5 6 6 7 8 8 8 8 8 9 8 8 7 7 8 7 7 6 5 4 5 6 6 6 8 7 6 6 6 6 5 6 7 8 9 10 11 12 12 11 10 8 8 12 12 12 14 14 12 12 9 9 11
5 5 7 5 7 3 2 5 2 3 4 6 8 8 4 8 3 5 4 5 7 6 5 8 5 3 2 2 5 6 5 4 4 3 3 3 3 5 5 7 7 5 5 6 6 6 6 7 8 9 8 7 7 8 8 8 7 7 8 7 8 7 7 6 6 7 7 7 8 7 7 6 6 6 5 5 6 8 9 10 10 11 10 10 11 11 13 13 12 12 11 11 12 13 11 11 9
4 2 3 3 2 5 3 3 5 1 7 5 4 7 5 6 5 5 6 5 4 7 8 10 5 2 3 5 5 4 5 5 4 5 4 5 4 3 5 6 6 6 5 6 6 6 7 7 8 8 6 7 7 7 8 9 8 8 7 7 8 8 8 7 9 9 9 9 8 7 6 5 6 5 5 5 7 7 9 8 9 9 9 10 11 11 11 11 11 11 11 11 11 11 10 9 7
5 6 6 4 3 4 2 3 1 4 6 1 2 2 2 15 4 4 8 9 3 5 6 4 3 3 4 4 5 5 3 3 5 5 5 5 6 6 6 6 5 7 9 8 8 7 7 7 8 9 8 7 8 8 9 9 8 8 8 8 7 7 8 9 9 8 8 8 7 7 7 7 5 6 6 7 7 8 8 9 9 10 9 10 11 11 11 12 11 12 12 13 11 12 12 11 10
5 7 6 5 1 1 4 4 2 4 5 5 0 1 6 4 6 8 11 12 9 9 5 3 4 6 7 7 6 5 4 6 6 6 5 6 6 6 6 6 7 7 7 8 8 8 7 7 8 10 9 8 8 8 9 9 10 9 8 8 8 7 8 9 9 8 8 7 7 8 8 8 8 9 8 9 8 8 8 9 11 11 11 11 12 12 12 12 12 12 12 12 12 11 9 11 10
8 3 9 9 8 5 4 3 4 7 5 2 3 2 7 2 4 1 5 8 8 3 5 6 5 3 3 5 3 2 5 5 3 5 7 8 8 7 8 8 8 7 7 7 7 7 7 8 9 10 9 9 10 10 9 11 10 9 8 8 8 7 8 8 8 7 8 8 7 8 8 7 8 9 9 9 8 9 8 9 10 11 11 11 11 10 10 11 11 10 10 11 10 9 10 10 10
2 3 6 4 8 6 2 5 3 1 1 2 2 6 5 5 3 7 4 7 9 6 4 4 6 4 2 1 3 6 5 5 5 6 6 6 7 7 7 6 7 6 7 7 8 8 9 10 10 11 12 11 11 11 11 11 10 8 8 9 9 9 7 7 7 6 8 9 9 9 9 8 8 7 7 7 8 9 10 9 9 10 11 11 12 12 11 11 11 11 10 10 11 7 10 10 9
4 5 7 7 5 5 1 1 0 2 3 10 2 8 8 7 9 11 14 7 7 6 7 6 7 9 3 4 8 6 4 6 7 7 7 8 7 7 8 7 6 7 8 10 11 10 11 10 10 11 10 9 11 12 11 10 9 8 9 9 8 8 8 9 8 8 9 7 8 8 8 8 8 7 7 7 8 8 8 9 9 9 9 9 10 11 12 12 11 10 9 9 9 8 10 11 9
7 4 7 1 2 4 4 5 2 1 5 8 3 10 8 3 14 3 1 6 7 7 8 8 9 8 4 10 8 4 7 7 7 7 8 9 9 10 9 7 8 10 10 9 10 8 9 9 10 11 11 12 11 10 10 10 10 9 9 9 9 9 7 7 6 8 7 8 7 7 6 6 8 7 7 7 8 9 8 8 8 8 7 7 9 8 9 10 11 10 10 10 9 8 9 8 9
5 4 3 6 3 2 2 4 3 1 2 6 5 4 8 9 13 1 2 1 2 6 9 8 11 11 12 9 8 8 4 4 5 7 8 9 9 8 8 10 8 8 8 8 8 8 7 7 8 10 13 12 10 9 8 8 10 9 8 9 9 9 8 6 6 6 7 8 8 8 8 8 7 8 8 8 8 8 8 7 7 7 8 8 7 8 8 9 9 9 8 8 7 9 10 9 8
0 2 1 1 4 3 5 7 4 6 5 1 9 3 12 7 5 8 9 7 11 10 9 9 12 13 11 8 9 9 6 5 6 6 8 9 8 8 10 10 9 9 8 7 8 7 9 9 8 9 7 6 7 9 8 9 9 9 8 7 8 8 9 9 7 7 7 8 8 9 9 8 9 8 8 8 9 10 9 9 7 7 8 8 8 7 9 9 8 8 9 8 9 10 11 11 9
3 2 3 1 0 2 4 0 5 5 3 5 3 9 10 6 8 7 8 9 10 11 12 9 9 12 10 8 9 8 7 5 6 7 7 8 7 7 8 7 6 5 5 6 7 10 9 7 9 9 10 9 10 10 9 9 8 9 9 10 9 8 9 8 9 9 9 9 8 8 8 8 7 8 8 9 9 10 10 10 9 9 10 10 10 9 9 9 10 11 10 10 10 10 12 9 9
13 13 11 12 8 4 4 8 1 2 3 4 2 13 14 5 4 8 10 10 8 7 8 8 11 10 7 9 8 8 6 7 7 7 6 5 5 6 5 5 4 5 6 8 8 7 8 10 9 8 8 9 10 10 10 10 8 9 10 10 10 8 9 8 9 9 9 8 8 8 7 6 8 8 9 10 11 10 10 11 10 10 9 9 10 11 11 10 11 11 11 9 11 11 10 10 10
Wind_Direction
338 333 313 277 149 123 61 18 52 305 65 81 111 47 205 94 143 71 66 6 51 279 161 61 29 22 103 147 123 115 11 124 237 133 203 187 149 150 145 136 132 127 128 135 134 123 127 137 120 118 122 120 117 116 115 112 109 104 99 94 91 88 87 85 83 80 80 80 80 79 78 78 78 79 82 86 92 92 90 87 83 86 88 82 79 78 77 74 73 73 75 81 83 71 59 55 52
322 331 311 273 206 78 317 130 105 11 43 63 67 103 169 52 45 111 101 101 174 146 200 115 77 84 98 119 131 97 26 22 339 131 89 116 118 126 139 138 136 133 133 137 135 132 129 130 127 129 126 123 120 119 117 114 113 106 102 97 95 92 90 89 87 85 84 83 84 84 83 82 83 85 88 91 90 88 88 88 90 87 82 83 82 81 80 77 73 73 81 85 78 60 55 51 46
337 357 346 28 32 90 348 46 306 103 85 80 258 170 43 75 103 108 119 110 129 140 124 79 91 75 85 103 38 78 252 41 84 77 96 137 123 151 144 140 129 131 135 142 138 136 134 136 137 132 127 125 125 123 120 119 116 111 105 101 97 94 92 92 92 93 91 90 90 88 89 88 87 88 88 86 85 87 86 85 86 88 92 90 87 84 79 74 73 79 86 83 69 59 54 48 44
354 71 107 24 352 26 64 22 101 121 109 194 117 320 98 129 130 126 136 152 155 125 85 21 58 260 94 73 113 77 103 130 66 131 128 150 157 146 142 136 131 133 137 140 138 136 139 148 140 133 130 128 128 128 125 122 121 118 110 106 103 100 99 96 96 96 96 96 94 93 91 91 90 91 92 92 90 81 73 74 81 80 84 91 91 83 78 75 77 84 85 76 62 56 52 48 46
21 352 141 75 109 354 89 214 133 98 106 191 159 140 128 133 140 117 106 145 74 93 58 129 72 329 100 110 152 98 196 107 113 36 115 161 141 138 135 138 135 136 136 134 132 135 143 148 139 136 133 133 130 126 125 125 123 118 113 110 107 103 101 99 98 98 99 98 97 95 93 91 91 90 88 88 87 75 75 72 75 82 84 85 85 84 80 77 78 84 84 70 61 54 49 46 45
332 14 193 106 164 188 43 36 15 70 234 154 114 161 160 145 129 137 117 64 28 59 78 74 162 158 28 8 49 112 116 113 180 77 135 172 138 134 132 134 129 130 125 126 128 133 146 148 139 137 137 133 131 129 128 127 126 121 116 111 107 104 100 99 98 98 99 99 97 96 94 94 94 93 93 93 89 81 78 79 77 75 76 84 86 83 81 78 80 86 80 65 58 51 46 44 43
336 31 9 28 338 64 153 126 116 98 350 113 133 146 149 139 135 116 110 54 353 31 26 93 92 93 80 181 35 55 286 184 113 155 125 159 130 130 129 123 122 121 123 126 128 134 145 146 141 136 133 135 134 132 130 129 127 125 120 116 111 107 103 101 99 98 97 97 97 96 95 94 93 91 90 92 91 86 86 85 83 82 81 79 80 82 82 81 83 86 76 62 56 49 47 44 43
255 95 260 95 290 57 51 160 63 162 16 74 143 124 140 137 131 111 163 99 200 100 335 35 74 94 64 76 125 296 12 40 125 119 108 123 127 139 130 115 122 122 122 127 131 136 145 146 140 136 136 135 134 133 133 132 131 129 126 122 118 112 108 105 104 101 99 98 99 99 98 97 94 92 90 88 94 97 92 88 84 80 80 82 84 83 82 83 85 86 72 63 56 52 50 48 47
336 91 328 64 27 20 62 102 107 151 87 72 99 133 143 147 148 126 146 179 116 118 117 119 117 85 197 58 68 166 40 68 92 95 104 120 131 146 129 126 124 127 124 128 134 136 138 139 138 138 138 137 137 138 137 134 134 134 130 126 122 117 112 109 107 106 104 103 102 102 101 99 97 94 93 93 91 87 90 93 95 88 84 85 86 86 86 83 83 83 73 64 59 54 49 47 48
349 112 304 168 123 30 360 55 74 217 125 148 132 145 144 154 140 140 141 107 161 106 267 175 131 123 131 93 110 39 163 151 108 90 102 126 145 142 143 136 130 130 131 135 136 135 136 139 138 139 140 140 141 143 140 138 137 137 135 129 125 121 116 114 111 110 109 108 106 105 103 102 101 99 96 96 97 89 91 89 92 93 92 91 91 92 90 88 87 87 73 67 61 54 47 46 47
329 8 160 48 26 106 137 127 100 70 109 112 72 153 159 149 137 142 137 137 134 136 228 114 81 133 112 84 185 260 148 134 125 146 158 140 144 159 156 139 133 135 136 139 138 136 136 136 139 140 142 142 146 146 142 141 141 140 137 133 130 124 120 118 117 114 114 112 110 108 106 104 104 103 102 100 98 98 99 97 97 97 94 95 96 96 94 91 92 90 77 70 65 58 52 49 47
353 25 7 122 240 155 200 132 132 129 95 84 30 109 165 122 108 101 126 111 123 133 163 121 178 141 72 123 205 152 146 139 154 155 156 151 153 181 158 124 136 137 139 140 137 139 136 133 132 139 141 146 148 144 144 144 140 137 135 136 134 128 124 123 120 118 116 115 114 113 111 110 108 106 105 103 99 100 103 101 100 100 101 100 98 98 97 94 94 87 80 75 69 62 57 52 51
130 193 64 83 230 89 158 107 177 130 118 190 164 231 98 86 138 154 157 132 146 113 64 222 153 90 96 97 216 150 152 187 148 148 151 149 182 167 55 98 144 135 135 140 141 141 141 136 136 137 139 142 143 144 143 142 137 137 137 138 137 131 128 124 124 123 121 121 119 116 113 111 110 110 107 104 100 100 101 103 103 104 104 104 104 101 98 97 92 85 81 78 71 65 62 57 56
112 205 116 252 348 132 130 137 131 120 246 237 232 156 112 126 259 180 121 107 122 133 218 235 73 108 100 79 126 181 192 176 143 140 141 158 118 75 75 89 137 137 140 144 145 146 143 142 139 136 142 135 132 134 138 139 139 137 136 137 136 135 132 128 127 125 124 120 116 113 111 109 108 106 105 106 105 103 105 106 107 108 107 108 106 105 103 102 93 86 82 79 72 67 62 61 63
291 141 89 151 319 79 190 121 184 135 186 156 210 134 135 48 112 56 120 120 71 228 286 105 159 82 217 136 237 200 173 167 148 147 143 138 91 84 83 92 113 130 144 144 144 147 148 145 144 146 148 141 141 140 125 137 139 136 137 139 137 137 132 130 127 123 120 119 116 111 106 101 99 100 100 103 100 99 100 103 108 110 111 111 111 109 106 103 94 90 86 80 74 67 60 61 66
171 79 90 54 308 110 267 96 101 110 179 159 212 114 81 325 64 86 247 151 180 319 88 184 8 170 169 170 205 160 153 153 148 137 138 109 92 78 78 79 96 106 128 137 143 151 151 150 150 152 152 151 149 149 142 132 141 140 142 143 141 137 136 132 129 127 125 120 117 114 110 104 98 96 98 98 100 98 96 97 103 109 113 113 113 113 112 105 98 92 88 82 74 67 61 57 62
50 82 20 31 314 93 258 118 129 159 215 189 180 144 135 173 324 80 43 81 107 172 49 5 80 43 129 185 136 128 143 137 122 126 120 111 106 95 71 94 99 105 121 133 137 150 152 150 155 156 161 156 154 153 150 140 147 145 143 144 142 139 139 137 131 127 125 125 122 118 112 108 105 100 95 99 93 96 97 97 103 111 113 114 115 115 114 107 100 95 89 81 73 64 57 56 58
60 92 120 335 203 52 273 210 190 168 131 188 168 178 116 133 300 227 69 40 94 74 103 49 36 45 69 91 104 126 139 133 137 135 143 139 136 137 138 176 139 143 142 146 146 148 150 155 160 165 163 161 156 155 156 148 141 147 145 147 143 140 137 132 131 133 131 128 126 121 117 115 110 105 104 101 98 97 96 98 101 111 116 116 115 116 113 105 99 95 88 79 70 63 57 58 57
109 159 87 205 203 293 334 248 138 110 180 166 183 167 139 198 140 217 115 231 132 103 104 80 71 51 63 83 117 133 141 141 147 154 154 159 165 171 174 175 174 155 159 161 166 164 159 156 162 164 171 163 152 156 159 152 153 147 146 147 145 143 142 139 138 138 137 137 133 126 120 115 116 113 111 111 107 100 102 103 104 109 115 114 113 111 108 104 97 87 76 70 65 58 57 57 61
221 110 81 242 188 178 28 347 50 175 145 147 177 198 157 200 141 147 177 185 145 169 154 50 134 163 163 157 146 148 151 154 158 164 166 168 173 174 176 181 187 185 173 172 168 171 168 162 170 167 170 167 154 157 156 158 161 151 150 149 148 147 149 147 146 148 146 145 141 136 123 123 116 111 110 111 106 100 93 92 96 97 99 101 102 100 84 70 70 69 68 65 59 58 59 58 65
260 75 166 186 202 110 313 357 328 59 141 161 150 112 110 182 166 147 178 108 238 236 201 168 199 179 179 175 164 163 163 166 168 172 174 177 182 190 190 187 188 182 176 162 164 182 180 170 169 173 173 170 161 161 160 168 163 156 155 158 155 154 157 155 154 152 157 156 150 143 135 127 122 124 123 113 112 112 105 104 101 101 103 100 101 92 82 75 70 69 66 65 66 66 64 55 64
82 165 171 192 58 65 264 300 3 9 135 114 130 117 176 109 87 182 141 167 215 211 220 209 193 170 161 173 178 166 174 176 180 178 184 184 184 186 190 202 212 172 170 178 186 178 184 181 171 176 179 176 172 165 169 166 163 165 164 163 162 160 164 161 159 160 167 168 162 147 137 130 132 131 130 126 124 126 119 120 120 121 117 121 113 95 90 89 79 77 78 77 74 73 72 65 59
96 331 41 20 159 132 273 9 335 44 87 96 91 191 127 147 183 227 151 186 231 211 163 183 201 170 176 156 151 167 177 187 190 192 186 186 192 188 188 188 189 192 187 193 181 185 178 182 182 181 183 176 176 168 166 165 172 171 168 167 167 167 170 164 167 168 174 176 165 147 144 143 143 144 137 140 140 139 132 135 133 136 137 138 123 101 95 93 94 88 83 82 81 81 75 73 69
105 175 103 23 73 97 200 123 10 55 88 97 187 70 134 167 162 312 222 239 203 196 206 141 137 123 130 150 173 174 183 185 196 198 191 191 187 189 183 184 197 188 179 191 186 186 184 188 186 186 186 175 175 173 166 172 175 171 171 168 175 174 172 173 171 173 175 180 164 159 150 149 150 151 147 149 151 146 143 140 145 145 150 146 114 108 104 98 99 96 95 87 84 76 80 76 78
104 69 105 178 62 156 62 88 52 57 70 89 80 109 231 167 189 59 240 234 225 203 160 112 119 132 149 156 177 184 186 196 203 203 211 218 200 188 177 183 187 192 194 195 187 185 193 187 186 190 187 180 176 170 171 176 176 174 170 174 180 172 180 179 175 170 174 183 167 161 154 151 156 156 156 158 155 154 148 146 148 161 158 130 117 111 113 112 104 102 97 97 93 89 84 77 81
122 172 127 73 106 97 117 60 35 72 74 56 79 8 295 243 205 240 227 240 210 172 125 129 130 140 160 175 182 182 188 194 197 191 206 200 185 184 199 187 189 194 202 190 184 192 189 183 187 191 186 179 179 173 174 174 177 178 176 176 178 170 183 182 175 176 178 178 175 169 165 161 164 162 161 164 161 161 157 152 154 161 147 131 119 117 118 112 112 102 97 94 95 93 87 82 84
140 103 115 127 170 108 336 116 19 58 91 54 103 339 296 301 54 279 282 229 181 144 149 153 144 162 178 181 188 193 187 196 193 197 185 191 200 194 204 194 191 199 184 189 189 187 182 176 186 187 186 179 173 182 179 176 173 176 178 176 171 178 181 180 180 179 180 185 180 171 172 169 164 164 163 169 169 162 161 156 160 152 135 133 118 115 114 113 108 107 108 106 101 98 89 88 89
98 120 82 81 89 62 38 83 76 63 350 60 95 281 317 316 63 236 237 274 171 161 167 170 161 174 185 190 189 199 199 202 193 167 186 186 201 201 200 195 198 193 184 191 188 177 174 178 173 180 183 180 176 186 177 177 179 173 171 174 177 180 175 180 182 178 180 181 181 176 172 175 172 167 168 170 169 164 163 161 153 144 136 128 118 118 110 106 106 103 101 101 104 99 96 89 88
151 109 84 264 33 74 248 153 234 76 286 41 145 22 308 155 227 241 239 265 143 163 176 182 186 193 194 195 196 199 206 199 182 187 196 197 198 197 201 200 189 191 198 183 177 173 182 181 174 180 176 181 182 188 184 182 176 179 176 174 175 177 178 177 185 185 180 177 179 180 184 183 179 171 172 172 168 164 165 159 149 146 142 133 124 120 112 108 108 112 110 114 107 104 101 96 94
106 43 127 51 16 336 256 305 78 82 273 43 44 311 265 233 236 260 277 177 116 148 184 196 203 207 209 203 205 213 218 191 190 198 200 199 197 199 203 204 191 188 184 178 168 182 181 180 178 177 181 185 191 188 184 188 183 174 180 180 171 170 176 179 184 188 185 182 181 180 185 181 188 176 169 169 165 161 163 158 149 142 142 133 129 128 124 128 127 123 125 114 109 110 108 107 103
138 195 65 139 75 268 290 171 186 125 318 35 77 197 286 266 269 283 213 166 153 190 210 212 213 218 218 218 216 217 221 201 199 202 202 199 199 200 202 197 193 182 171 180 185 181 176 180 176 184 182 186 189 192 185 188 185 175 169 171 178 174 174 180 181 183 187 189 182 184 183 179 183 179 173 166 164 159 156 151 149 146 142 138 134 136 132 133 133 134 139 125 120 108 105 102 104
104 62 295 323 129 276 300 17 156 164 301 54 87 288 250 276 278 291 282 154 159 195 224 241 237 232 226 223 223 224 224 215 215 206 203 202 197 199 198 198 191 183 182 186 184 171 179 180 181 181 181 183 189 188 185 182 185 183 180 172 167 181 178 181 180 183 183 182 184 183 184 186 181 174 172 167 158 156 154 154 150 143 143 137 134 136 139 140 140 135 139 136 126 122 114 106 101
8 114 261 261 95 215 344 297 201 171 118 360 165 225 323 310 300 310 318 154 160 192 231 237 239 241 235 225 222 223 229 244 233 216 208 203 205 198 197 194 191 193 186 177 180 178 178 180 181 181 185 184 184 184 180 181 179 188 188 186 168 176 184 184 181 175 175 178 173 180 185 186 186 171 171 169 157 154 150 146 149 146 142 137 140 145 147 149 143 138 138 134 127 130 121 115 100
298 23 193 211 155 169 249 296 301 117 110 226 293 220 244 250 279 295 300 221 193 222 239 240 235 232 228 219 221 221 218 216 220 218 216 205 203 199 195 193 191 188 189 183 180 179 182 178 182 183 182 179 179 181 182 177 179 174 172 167 147 173 187 184 177 171 171 172 171 170 175 184 188 172 168 169 160 157 153 150 150 150 143 141 141 146 143 140 144 140 133 130 131 131 127 122 118
202 197 207 294 248 170 194 158 251 132 38 165 305 240 267 270 275 264 248 233 198 224 228 233 232 237 240 222 219 222 218 218 226 216 211 208 203 198 193 193 191 188 188 185 175 176 168 177 174 179 171 171 173 170 170 165 156 139 114 118 131 147 181 185 174 176 172 165 173 169 154 171 185 168 167 165 158 151 146 146 149 152 147 144 139 135 140 152 152 144 137 129 122 126 128 125 123
180 170 176 162 152 246 244 247 315 131 162 243 220 228 248 262 273 283 273 224 215 230 241 254 253 244 238 228 223 221 220 228 230 219 215 210 201 188 188 187 193 192 187 181 175 167 170 172 173 171 174 167 155 158 155 160 156 168 174 148 207 237 164 169 191 180 168 173 170 166 159 159 183 170 163 162 155 153 150 154 152 155 153 148 144 149 160 167 161 147 142 138 128 115 114 126 127
120 93 109 154 137 353 316 17 298 98 82 236 233 250 257 269 266 267 271 270 224 242 248 245 247 244 237 237 234 230 223 227 225 216 215 207 198 190 182 174 181 183 181 179 177 178 175 177 169 182 181 167 164 168 175 170 174 174 188 198 199 186 178 173 180 178 182 174 172 166 163 163 171 185 169 164 164 160 157 155 157 162 160 161 162 167 167 165 156 140 134 138 137 136 136 140 133
120 109 69 345 122 167 269 218 309 335 127 292 270 276 266 255 263 263 270 285 266 230 229 238 240 241 239 234 238 239 237 267 227 233 235 217 192 182 171 172 166 172 197 183 186 188 178 171 180 181 174 180 183 183 178 180 188 191 179 189 170 161 170 171 183 187 179 175 175 170 167 170 172 181 181 166 164 164 160 157 164 168 164 168 165 162 159 150 147 146 144 132 145 141 145 157 155
49 116 137 71 335 177 309 336 338 295 85 258 342 319 276 268 258 260 251 250 251 234 214 227 224 240 243 235 238 248 254 249 230 233 217 193 183 180 177 183 188 189 179 184 185 171 172 178 187 178 184 184 189 179 168 185 169 140 140 144 167 138 82 157 156 165 160 168 181 177 164 173 179 179 185 172 166 172 166 162 165 168 172 159 144 156 168 157 159 158 158 150 144 140 144 170 171
102 64 71 196 237 126 290 288 328 257 162 269 352 321 285 278 257 252 252 243 253 262 233 239 219 235 242 235 224 230 235 237 233 222 204 189 180 180 179 189 193 176 169 172 170 179 179 184 188 186 188 185 176 177 168 142 130 120 105 127 136 122 167 104 88 130 147 152 184 189 178 181 193 185 180 179 175 171 173 170 160 164 166 167 162 155 160 168 164 163 159 157 148 150 169 181 199
339 127 131 204 183 57 154 242 299 315 338 42 330 292 291 303 333 319 291 263 249 266 270 268 257 237 246 256 259 230 228 219 227 225 196 169 172 189 193 193 169 180 184 184 180 184 187 188 189 185 182 180 170 160 155 139 118 103 87 63 77 81 64 109 109 171 188 182 165 187 194 185 207 197 183 177 177 175 173 171 164 160 161 162 152 165 175 175 173 168 164 163 172 159 165 171 195
339 255 175 190 130 117 45 8 43 16 351 321 57 345 302 289 295 259 282 352 309 287 255 257 257 257 245 243 238 245 249 223 205 204 193 188 189 190 192 175 184 189 189 195 189 189 182 183 181 180 172 167 160 157 155 150 155 153 152 152 167 185 200 189 201 196 186 189 193 169 181 190 201 207 194 181 177 173 174 171 165 161 165 166 173 178 170 163 168 172 179 173 171 178 160 164 176
88 255 156 153 130 116 96 28 62 336 223 292 74 112 279 304 281 273 286 277 267 286 306 271 271 263 233 235 244 241 235 240 248 234 180 177 199 185 193 190 191 189 202 185 188 191 187 178 178 172 168 164 160 161 160 158 165 175 181 186 186 190 197 212 205 185 182 178 149 181 194 195 199 199 198 190 182 180 175 173 173 172 171 175 175 167 176 178 177 179 174 177 177 165 168 170 177
215 236 175 105 88 92 117 97 112 226 240 307 7 137 222 301 290 218 235 246 266 282 273 268 266 265 248 235 242 242 233 224 214 201 189 194 187 186 191 194 189 198 187 182 191 188 184 175 167 170 169 173 177 168 172 173 175 181 185 192 191 196 200 195 186 187 168 161 172 184 188 202 200 204 190 186 183 176 173 173 172 171 174 179 177 179 180 180 173 174 178 174 166 179 183 178 170
213 240 142 110 125 144 113 94 134 219 34 287 329 335 302 237 270 294 251 261 269 253 255 259 253 255 262 232 247 250 233 221 203 187 190 193 192 198 188 187 199 185 184 190 191 186 177 173 172 170 177 177 182 177 174 183 179 179 184 185 195 205 188 178 163 162 170 173 181 181 189 199 200 206 194 184 181 176 173 174 172 174 176 180 183 180 174 175 176 171 171 174 177 180 189 188 170
256 149 73 70 68 65 98 100 69 336 47 267 237 186 228 277 230 273 25 271 271 252 247 248 251 261 269 259 251 208 172 170 202 183 176 189 193 192 190 176 175 195 193 186 182 171 175 172 175 173 183 183 180 181 177 179 177 173 183 190 190 190 185 174 168 175 178 178 187 185 188 193 196 199 198 189 181 179 176 175 177 178 178 172 169 170 171 173 181 180 178 178 175 174 183 184 189
122 67 62 21 33 30 19 68 87 44 275 255 206 206 149 287 263 208 149 217 200 249 284 266 267 245 250 209 180 174 161 144 133 103 91 169 197 178 158 174 190 189 187 178 179 179 173 175 177 180 184 177 177 177 175 181 180 181 189 190 193 190 190 179 183 189 179 186 191 185 187 193 191 195 186 191 189 179 180 179 179 179 176 170 171 173 178 183 179 179 179 178 179 179 185 189 188
105 97 112 46 340 13 27 344 34 158 267 263 251 207 159 227 291 280 236 269 237 187 223 245 273 295 185 185 214 209 180 163 149 129 122 114 113 144 161 177 185 186 176 184 185 178 175 178 175 177 177 178 176 172 177 184 183 188 192 192 199 200 193 195 196 196 190 192 189 185 183 179 194 191 191 186 190 186 179 180 178 173 173 171 180 179 180 183 177 175 177 181 184 188 187 180 166
79 85 66 116 258 31 312 19 290 212 222 254 333 198 10 248 216 275 291 290 281 235 231 232 219 218 241 242 232 220 204 163 169 174 160 160 162 171 187 189 178 186 191 187 184 180 177 176 178 176 185 178 180 173 181 184 187 192 192 197 204 202 208 206 202 198 188 190 185 183 179 189 178 186 197 192 196 184 179 175 175 176 178 181 180 179 182 180 178 180 182 184 184 183 182 175 169
117 145 144 116 165 160 243 269 228 300 296 264 292 67 250 282 301 232 251 262 229 226 214 210 169 181 208 222 223 215 199 192 196 186 189 188 186 196 196 192 194 195 194 187 183 181 180 179 182 185 187 180 179 180 183 186 195 195 195 199 202 202 211 206 205 195 184 189 183 189 191 188 188 196 188 198 188 186 185 185 181 183 184 180 183 184 182 182 182 184 183 183 181 182 174 178 181
207 123 157 180 154 164 207 183 203 221 216 285 280 99 233 96 240 248 237 255 268 255 209 232 225 213 219 225 232 212 206 216 204 203 203 201 203 201 203 201 200 198 194 189 187 187 179 184 185 189 186 187 182 186 185 192 196 197 198 201 204 207 208 203 205 192 182 187 187 190 196 193 193 198 195 193 182 185 189 187 187 187 184 182 185 185 184 183 185 184 186 184 178 175 174 173 182
243 167 88 97 221 130 165 203 159 235 323 341 221 215 192 184 264 290 255 298 315 315 328 330 314 324 30 268 237 234 209 212 208 212 221 228 217 212 212 211 207 200 196 195 195 188 189 193 190 193 192 189 186 186 192 191 195 194 197 200 208 209 205 197 197 190 189 184 184 190 195 195 199 196 198 187 189 186 186 188 190 194 190 186 184 184 181 182 182 183 182 180 180 170 167 171 178
228 122 210 206 180 120 91 357 360 98 34 257 156 298 271 300 286 237 253 261 272 311 323 331 297 283 320 279 256 248 229 215 212 210 211 220 221 222 216 209 207 202 200 201 199 195 193 189 191 196 198 196 194 192 190 189 189 190 199 202 203 208 208 203 197 190 186 186 184 190 190 195 191 189 191 193 186 191 192 190 186 192 189 187 188 188 181 180 177 178 177 174 173 170 163 172 169
101 192 236 213 97 122 140 214 338 99 202 266 119 238 285 49 285 342 336 236 270 297 285 264 267 276 291 251 255 237 232 226 218 215 212 213 212 210 208 211 208 205 203 204 206 201 200 196 193 195 198 200 203 192 187 184 186 192 194 200 203 200 205 202 195 191 185 182 185 186 186 183 191 189 185 188 187 188 191 190 187 184 182 181 181 180 184 180 175 175 177 176 170 161 161 157 170
148 191 208 120 255 252 298 94 247 189 269 269 279 244 264 201 246 94 352 137 223 253 250 256 260 264 253 258 274 263 241 251 229 224 222 224 219 215 206 211 214 211 207 206 203 200 205 206 205 202 203 204 199 195 189 188 185 188 190 194 198 201 195 197 194 188 186 187 186 189 191 191 183 181 181 181 184 187 187 187 184 181 176 180 183 179 176 175 172 164 161 154 153 156 153 165 171
30 63 136 163 104 168 147 200 174 123 242 71 280 121 263 177 231 161 227 234 246 245 247 239 238 242 248 247 250 260 259 234 236 227 222 219 218 208 203 203 204 206 205 206 202 200 208 206 205 214 216 205 197 197 192 194 193 186 187 186 198 203 200 198 194 187 192 195 190 189 192 188 189 182 186 179 183 183 183 184 181 176 176 171 170 174 164 159 156 162 159 157 164 159 157 163 168
202 142 222 223 342 233 120 181 147 169 182 184 263 296 257 250 194 164 203 214 218 215 229 230 235 243 241 243 243 248 251 242 235 228 222 218 215 210 209 205 204 202 204 200 202 206 208 203 210 208 208 209 207 200 190 197 188 194 184 189 194 195 199 195 194 194 196 198 193 191 193 191 175 188 179 182 184 185 185 185 179 178 176 174 170 170 171 164 168 165 166 164 162 162 160 163 158
176 179 196 188 138 155 154 259 13 126 159 236 148 260 277 239 202 175 215 224 220 224 213 226 234 242 243 242 245 239 246 243 230 228 218 212 214 218 214 194 188 190 204 207 211 206 208 208 206 204 211 215 210 209 199 189 190 192 191 190 192 193 192 194 196 194 200 199 196 196 190 176 184 186 180 186 187 186 186 184 182 182 179 177 177 174 172 172 173 168 166 165 166 164 164 162 164